[[{"header":{"parameterUnit":"m.s-1","parameterCategory":1,"la1":30.2991,"la2":30.254,"lo1":-89.0895,"lo2":-89.0444,"dy":0.0017,"dx":0.0017,"nx":28,"ny":28,"refTime":"2024-08-31T03:00:00:Z","depth":0,"parameterNumber":2,"parameterNumberName":"U-component_of_WINDS"},"data":[0,0,0,0,0,0,0,0,0,0,0,0,0,0,0,0,0,0,0,0,0,0,0,0,0,0,0,0,0,0,0,0,0,0,0,0,0,0,0,0,0,0,0,0,0,0,0,0,0,0,0,0,0,0,0,0,0,0,-2.377,-2.377,0,-2.3714,-2.3713,-2.3713,-2.363,-2.3629,-2.3627,-2.3626,-2.3569,-2.3569,-2.3569,0,0,0,0,0,0,0,0,0,0,0,0,0,-2.381,-2.381,-2.377,-2.377,-2.3769,-2.3714,-2.3713,-2.3713,-2.363,-2.3629,-2.3627,-2.3625,-2.3569,-2.3569,-2.3569,0,0,0,0,0,0,0,0,0,0,0,0,0,-2.3777,-2.381,-2.3771,-2.3721,-2.3716,-2.3714,-2.3713,-2.3712,-2.3631,-2.3629,-2.3627,-2.3625,-2.3569,-2.3569,-2.3569,-2.361,0,0,-2.3568,-2.3568,0,0,0,0,0,0,0,0,-2.3779,-2.3776,-2.3729,-2.3725,-2.3719,-2.3677,-2.3706,-2.3678,-2.3631,-2.3663,-2.3626,-2.3623,-2.3607,-2.3603,-2.3597,-2.3607,-2.3605,-2.3568,-2.3568,-2.3567,-2.3567,0,0,0,0,0,0,0,-2.3782,-2.3778,-2.3748,-2.3729,-2.3723,-2.3703,-2.3696,-2.3701,-2.3648,-2.366,-2.3654,-2.3649,-2.3604,-2.3598,-2.3595,-2.3604,-2.3568,-2.3568,-2.3567,-2.3567,-2.3649,-2.3651,0,0,0,0,0,0,-2.3791,-2.378,-2.375,-2.3746,-2.3745,-2.3704,-2.3696,-2.3693,-2.3648,-2.3639,-2.3651,-2.3645,-2.3599,-2.3596,-2.3593,-2.364,-2.3567,-2.3567,-2.3567,-2.3646,-2.3649,-2.3652,0,0,0,0,0,0,-2.3792,-2.3789,-2.3752,-2.3762,-2.3756,-2.3706,-2.3702,-2.3693,-2.3687,-2.364,-2.3631,-2.3654,-2.3598,-2.3593,-2.3607,-2.3636,-2.3567,-2.3567,-2.3643,-2.3647,-2.365,-2.3733,0,0,0,0,0,0,-2.3794,-2.379,-2.3804,-2.3763,-2.3755,-2.3766,-2.3704,-2.3693,-2.3686,-2.3679,-2.3641,-2.3633,-2.3596,-2.3608,-2.3607,-2.3635,-2.3567,-2.3641,-2.3645,-2.3649,-2.3727,-2.3739,-2.3748,0,0,0,0,0,-2.3795,-2.3829,-2.3805,-2.3802,-2.3772,-2.3768,-2.3764,-2.372,-2.3689,-2.3704,-2.3674,-2.3634,-2.3634,-2.361,-2.3608,-2.3636,-2.3638,-2.3644,-2.3649,-2.3722,-2.3736,-2.3748,0,0,0,0,0,0,-2.3874,-2.3822,-2.3795,-2.3817,-2.3798,-2.3754,-2.377,-2.3736,-2.3725,-2.3718,-2.3665,-2.3657,-2.3678,-2.3659,-2.3633,-2.3676,-2.363,-2.3635,-2.3687,-2.37,-2.371,-2.3714,-2.3566,0,0,0,0,0,-2.3895,-2.3895,-2.385,-2.3873,-2.3865,-2.382,-2.3817,-2.3785,-2.3763,-2.3754,-2.3726,-2.3706,-2.3702,-2.37,-2.3694,-2.3725,-2.3716,-2.3744,-2.3755,-2.3764,-2.3768,-2.3785,-2.3797,-2.3669,-2.3669,-2.3669,0,0,-2.3935,-2.3907,-2.3911,-2.3889,-2.387,-2.3873,-2.3813,-2.3818,-2.382,-2.3755,-2.3766,-2.3745,-2.372,-2.3744,-2.3752,-2.3728,-2.3803,-2.3771,-2.3778,-2.3777,-2.3792,-2.3804,-2.3815,-2.3672,-2.3672,-2.3671,0,0,-2.4011,-2.399,-2.4007,-2.3991,-2.3964,-2.3934,-2.3939,-2.3902,-2.3885,-2.3896,-2.3848,-2.3851,-2.3844,-2.3829,-2.382,-2.3896,-2.3858,-2.3895,-2.395,-2.3967,-2.3978,-2.3986,-2.4013,-2.4024,-2.39,-2.3901,-2.3901,0,-2.4065,-2.4066,-2.4021,-2.4029,-2.4022,-2.3965,-2.3983,-2.397,-2.3942,-2.3939,-2.3913,-2.3905,-2.3885,-2.3904,-2.3923,-2.3918,-2.3923,-2.3898,-2.398,-2.3988,-2.3995,-2.4021,-2.4031,-2.3905,-2.3905,-2.3904,-2.3904,0,-2.4135,-2.4137,-2.4155,-2.413,-2.4125,-2.4139,-2.4097,-2.4097,-2.4068,-2.4042,-2.4055,-2.4029,-2.4017,-2.402,-2.399,-2.4037,-2.4023,-2.3989,-2.3942,-2.4013,-2.4036,-2.4045,-2.3912,-2.391,-2.3909,-2.3908,0,0,-2.4255,-2.4208,-2.4215,-2.4204,-2.4173,-2.4174,-2.4187,-2.4175,-2.4177,-2.4162,-2.4171,-2.417,-2.4139,-2.413,-2.4099,-2.4115,-2.4177,-2.4079,-2.4078,-2.4098,-2.4228,-2.4252,-2.4264,-2.4154,-2.4155,-2.4157,-2.423,0,-2.4323,-2.434,-2.4302,-2.4329,-2.4331,-2.428,-2.4291,-2.4274,-2.4251,-2.4251,-2.4226,-2.4226,-2.4185,-2.418,-2.4193,-2.4167,-2.4202,-2.4161,-2.4162,-2.4163,-2.4168,-2.4276,-2.4301,-2.437,-2.4238,-2.424,-2.4241,0,-2.4404,-2.4394,-2.4421,-2.4391,-2.439,-2.4401,-2.4389,-2.4389,-2.437,-2.4353,-2.4345,-2.4309,-2.4321,-2.4278,-2.4294,-2.4268,-2.4267,-2.4255,-2.4256,-2.4253,-2.4205,-2.4275,-2.4391,-2.4402,-2.4255,-2.4253,-2.4252,0,-2.4489,-2.4482,-2.4498,-2.4491,-2.4455,-2.4464,-2.445,-2.4428,-2.4425,-2.4416,-2.4414,-2.4406,-2.4402,-2.4398,-2.4362,-2.4334,-2.4384,-2.4337,-2.437,-2.4371,-2.438,-2.438,-2.4497,-2.4382,-2.4382,-2.4382,-2.4382,0,-2.4568,-2.4587,-2.4536,-2.4545,-2.4566,-2.4523,-2.4545,-2.4526,-2.4508,-2.4514,-2.4471,-2.4478,-2.4431,-2.4434,-2.4407,-2.4425,-2.4424,-2.4411,-2.4403,-2.4413,-2.4415,-2.441,-2.4404,-2.4385,-2.4384,-2.4384,-2.4383,0,-2.4664,-2.4631,-2.4645,-2.4611,-2.4604,-2.462,-2.4592,-2.4601,-2.4577,-2.4586,-2.4586,-2.4548,-2.455,-2.4515,-2.4509,-2.4491,-2.4521,-2.4505,-2.4527,-2.4522,-2.4557,-2.4554,-2.4674,-2.4688,-2.4566,-2.4567,-2.4568,0,-2.4716,-2.473,-2.4699,-2.47,-2.4688,-2.469,-2.4688,-2.4648,-2.4647,-2.4628,-2.464,-2.4638,-2.4633,-2.4638,-2.4611,-2.4607,-2.4591,-2.4633,-2.4589,-2.4601,-2.4591,-2.459,-2.4591,-2.4642,-2.4643,-2.4645,-2.4646,0,-2.4812,-2.4796,-2.4793,-2.4786,-2.4784,-2.4776,-2.4766,-2.477,-2.4726,-2.4728,-2.4729,-2.4726,-2.4722,-2.472,-2.4712,-2.4699,-2.4666,-2.466,-2.4668,-2.4678,-2.469,-2.4683,-2.4551,-2.4657,-2.4656,-2.4655,-2.4654,-2.4654,-2.4887,-2.4897,-2.4878,-2.4877,-2.4866,-2.4858,-2.4865,-2.4843,-2.4843,-2.4836,-2.4814,-2.4819,-2.4803,-2.4788,-2.4779,-2.4784,-2.4762,-2.4773,-2.4775,-2.4778,-2.4785,-2.4691,-2.4782,-2.4782,-2.4781,-2.4781,-2.4781,0,-2.498,-2.4966,-2.4966,-2.4953,-2.4954,-2.4924,-2.4912,-2.4914,-2.492,-2.4907,-2.4905,-2.4908,-2.4908,-2.4883,-2.488,-2.4889,-2.4874,-2.4889,-2.4887,-2.4885,-2.4804,-2.4797,-2.4902,-2.4902,-2.4902,-2.4902,-2.4902,-2.4902,-2.5028,-2.5044,-2.5027,-2.5038,-2.5024,-2.5029,-2.5025,-2.5018,-2.5009,-2.5014,-2.5013,-2.4998,-2.4981,-2.4977,-2.4977,-2.4969,-2.497,-2.4991,-2.4979,-2.4903,-2.4891,-2.4879,-2.4873,-2.4992,-2.4992,-2.506,-2.506,-2.5061]},{"header":{"parameterUnit":"m.s-1","parameterCategory":1,"la1":30.2991,"la2":30.254,"lo1":-89.0895,"lo2":-89.0444,"dy":0.0017,"dx":0.0017,"nx":28,"ny":28,"refTime":"2024-08-31T03:00:00:Z","depth":0,"parameterNumber":3,"parameterNumberName":"V-component_of_WINDS"},"data":[0,0,0,0,0,0,0,0,0,0,0,0,0,0,0,0,0,0,0,0,0,0,0,0,0,0,0,0,0,0,0,0,0,0,0,0,0,0,0,0,0,0,0,0,0,0,0,0,0,0,0,0,0,0,0,0,0,0,1.7548,1.7549,0,1.7593,1.7593,1.7594,1.7658,1.766,1.7661,1.7662,1.7706,1.7706,1.7706,0,0,0,0,0,0,0,0,0,0,0,0,0,1.7517,1.7517,1.7548,1.7549,1.7549,1.7593,1.7593,1.7594,1.7658,1.766,1.7661,1.7662,1.7706,1.7706,1.7706,0,0,0,0,0,0,0,0,0,0,0,0,0,1.7543,1.7517,1.7548,1.7587,1.7591,1.7593,1.7593,1.7594,1.7658,1.766,1.7661,1.7663,1.7705,1.7706,1.7706,1.7673,0,0,1.7706,1.7706,0,0,0,0,0,0,0,0,1.7541,1.7544,1.758,1.7584,1.7588,1.7622,1.7599,1.7621,1.7658,1.7632,1.7662,1.7664,1.7676,1.7679,1.7684,1.7675,1.7677,1.7706,1.7706,1.7707,1.7707,0,0,0,0,0,0,0,1.7539,1.7542,1.7566,1.7581,1.7586,1.7601,1.7607,1.7603,1.7644,1.7635,1.7639,1.7644,1.7679,1.7683,1.7685,1.7678,1.7706,1.7707,1.7707,1.7707,1.7645,1.7643,0,0,0,0,0,0,1.7532,1.754,1.7564,1.7567,1.7569,1.76,1.7607,1.7609,1.7644,1.7651,1.7642,1.7647,1.7682,1.7685,1.7687,1.7651,1.7707,1.7707,1.7707,1.7647,1.7645,1.7643,0,0,0,0,0,0,1.7531,1.7534,1.7563,1.7555,1.756,1.7599,1.7602,1.7609,1.7614,1.765,1.7658,1.764,1.7683,1.7687,1.7676,1.7653,1.7707,1.7707,1.7649,1.7646,1.7644,1.7579,0,0,0,0,0,0,1.753,1.7533,1.7521,1.7554,1.756,1.7551,1.76,1.7609,1.7614,1.762,1.765,1.7656,1.7685,1.7676,1.7676,1.7655,1.7707,1.7651,1.7648,1.7645,1.7583,1.7574,1.7567,0,0,0,0,0,1.7529,1.7501,1.752,1.7523,1.7546,1.755,1.7553,1.7588,1.7612,1.7601,1.7624,1.7655,1.7656,1.7674,1.7675,1.7653,1.7653,1.7649,1.7645,1.7587,1.7576,1.7567,0,0,0,0,0,0,1.7463,1.7506,1.7528,1.751,1.7526,1.7561,1.7547,1.7575,1.7584,1.7589,1.7631,1.7637,1.7622,1.7637,1.7656,1.7624,1.7659,1.7655,1.7614,1.7604,1.7596,1.7593,1.7707,0,0,0,0,0,1.7446,1.7446,1.7484,1.7464,1.7471,1.7507,1.751,1.7536,1.7554,1.7561,1.7583,1.7599,1.7603,1.7605,1.761,1.7586,1.7593,1.7571,1.7563,1.7556,1.7552,1.754,1.7531,1.763,1.763,1.763,0,0,1.7412,1.7435,1.7433,1.7451,1.7467,1.7465,1.7513,1.7509,1.7508,1.756,1.7552,1.7569,1.7589,1.7572,1.7565,1.7584,1.7527,1.7551,1.7545,1.7545,1.7535,1.7526,1.7517,1.7627,1.7628,1.7628,0,0,1.7349,1.7366,1.7352,1.7367,1.739,1.7415,1.7411,1.7442,1.7456,1.7448,1.7487,1.7487,1.7492,1.7506,1.7513,1.7455,1.7484,1.7456,1.7412,1.74,1.7392,1.7386,1.7365,1.7357,1.7452,1.7451,1.7451,0,1.7303,1.7303,1.7341,1.7335,1.7342,1.739,1.7375,1.7388,1.7411,1.7414,1.7435,1.7444,1.7461,1.7447,1.7433,1.7437,1.7434,1.7452,1.7391,1.7384,1.7379,1.7359,1.7351,1.7448,1.7448,1.7449,1.7449,0,1.7245,1.7244,1.723,1.7252,1.7258,1.7247,1.7284,1.7285,1.731,1.7332,1.7324,1.7346,1.7357,1.7356,1.738,1.7345,1.7356,1.7383,1.7419,1.7365,1.7347,1.734,1.7443,1.7444,1.7445,1.7446,0,0,1.7141,1.7185,1.7179,1.719,1.7219,1.7219,1.7211,1.7222,1.7222,1.7236,1.723,1.7235,1.726,1.7268,1.7294,1.7284,1.7236,1.7312,1.7313,1.7297,1.7199,1.7179,1.7169,1.7256,1.7255,1.7254,1.7198,0,1.7083,1.7072,1.7107,1.7087,1.7086,1.7132,1.7125,1.7142,1.7162,1.7165,1.7188,1.719,1.7223,1.7229,1.722,1.7244,1.7217,1.7248,1.725,1.725,1.7243,1.716,1.7138,1.7084,1.7191,1.719,1.7189,0,1.7014,1.7025,1.7005,1.7036,1.7037,1.703,1.7044,1.7046,1.7066,1.7082,1.7091,1.7122,1.7115,1.7151,1.7143,1.7163,1.7166,1.7177,1.7176,1.7177,1.7216,1.7158,1.7068,1.7059,1.7179,1.7179,1.718,0,1.6939,1.695,1.694,1.6947,1.6983,1.6977,1.6991,1.7013,1.7018,1.703,1.7033,1.7043,1.7049,1.7056,1.7089,1.7111,1.7076,1.7114,1.7089,1.7088,1.7079,1.7079,1.6987,1.7081,1.7082,1.7082,1.7082,0,1.6871,1.6856,1.6907,1.69,1.6886,1.6926,1.691,1.6929,1.6948,1.6946,1.6986,1.6983,1.7026,1.7027,1.7053,1.7042,1.7044,1.7057,1.7063,1.7053,1.7051,1.7055,1.7059,1.708,1.708,1.708,1.7081,0,1.6785,1.6818,1.681,1.6844,1.6853,1.684,1.687,1.6865,1.6889,1.6885,1.6887,1.6923,1.6927,1.696,1.6971,1.6989,1.6968,1.6982,1.6961,1.6966,1.6938,1.694,1.6845,1.6834,1.6936,1.6935,1.6934,0,1.6738,1.6729,1.6763,1.6764,1.6777,1.6779,1.6785,1.6823,1.6827,1.685,1.6842,1.6849,1.6857,1.6861,1.6888,1.6897,1.6912,1.6878,1.6913,1.6903,1.6911,1.6911,1.691,1.687,1.6869,1.6868,1.6867,0,1.6653,1.667,1.6676,1.6688,1.6694,1.6705,1.6719,1.6718,1.6761,1.6763,1.6768,1.6774,1.6786,1.6792,1.6806,1.682,1.685,1.6855,1.685,1.6839,1.6827,1.6833,1.694,1.6857,1.6858,1.6859,1.6859,1.686,1.6586,1.6579,1.6602,1.6608,1.6623,1.6634,1.6632,1.6655,1.666,1.6673,1.6696,1.6697,1.6718,1.6739,1.6751,1.6753,1.677,1.6762,1.676,1.6758,1.6752,1.6827,1.6755,1.6756,1.6756,1.6756,1.6756,0,1.6502,1.6519,1.6524,1.6542,1.6547,1.6576,1.6592,1.6594,1.6595,1.6612,1.6619,1.6624,1.6631,1.6659,1.6669,1.6664,1.6678,1.6666,1.6666,1.6669,1.6736,1.6739,1.6654,1.6654,1.6654,1.6654,1.6654,1.6654,1.6459,1.645,1.6469,1.6468,1.6485,1.6487,1.6494,1.6505,1.6519,1.6524,1.653,1.6548,1.6569,1.6581,1.6588,1.6596,1.6598,1.658,1.6593,1.6654,1.6664,1.6674,1.6677,1.658,1.658,1.6526,1.6525,1.6525]}]]